Terminal Aerodrome Forecast
Issued by NWS Pittsburgh, PA

Current Version | Previous Version | Text Only | Print | Product List | Glossary Off
Versions: 1 2 3 4 5 6 7 8 9 10 11 12 13 14 15 16 17 18 19 20 21 22 23 24 25 26 27 28 29 30 31

000
FTUS41 KPBZ 230800 AAA
TAFPIT
TAF AMD
KPIT 230806Z 2308/2412 21005KT P6SM SCT050
     FM231600 25013KT 5SM -SHRA VCTS BKN035CB
     FM232200 31012KT P6SM BKN035
     FM240300 33006KT P6SM SCT035=

USA.gov is the U.S. government's official web portal to all federal, state and local government web resources and services.